Flag for US Virgin Islands Weather past 2 weeks in Charlotte Amalie, US Virgin Islands

Now
81 °F

Partly cloudy.


Feels Like: 87 °F
Forecast: 81 / 87 °F
Wind: 6 mph from East

Location: Cyril E. King International Airport

Current Time: Jul 31, 2014 at 5:57:11 AM

Latest Report: Jul 31, 2014 at 5:26 AM


Visibility: 10 mi

Pressure: 29.99 "Hg

Humidity: 89%

Dew point: 77 °F

Location of Charlotte AmalieLocation

Historic Weather in Charlotte Amalie — Graph

°F

Charlotte Amalie temperature yesterday

Maximum temperature yesterday: 88 °F (at 1:53 PM)
Minimum temperature yesterday: 79 °F (at 1:53 AM)
Average temperature yesterday: 83 °F

Past Weeks' High & Low Weather Summary

 TemperatureHumidityPressure
High92 °F (Jul 23, 11:53 AM)94% (Jul 18, 6:16 AM)30.13 "Hg (Jul 18, 6:16 AM)
Low78 °F (Jul 21, 4:53 AM)52% (Jul 23, 10:53 AM)29.98 "Hg (Jul 31, 2:53 AM)
Average84 °F75%30.06 "Hg
* Reported Jul 16 4:44 AM — Jul 31 4:53 AM, Charlotte Amalie, Weather by CustomWeather, © 2014

Note: Actual official high and low records may vary slightly from our data, if they occured in-between our weather recording intervals... More about our weather records

Advertising

Charlotte Amalie weather history for previous 24 hours

 ConditionsComfort  
Time TempWeatherWind HumidityBarometerVisibility
4:53 AM
Jul 31
80 °FPassing clouds.5 mph90%29.99 "Hg10 mi
2:53 AM80 °FPassing clouds.No wind94%29.98 "Hg10 mi
1:53 AM81 °FPassing clouds.9 mph94%30.00 "Hg10 mi
1:27 AM81 °FPassing clouds.5 mph94%30.00 "Hg10 mi
12:53 AM81 °FRain. Passing clouds.7 mph91%30.01 "Hg7 mi
11:53 PM
Jul 30
81 °FPassing clouds.7 mph85%30.02 "Hg10 mi
10:53 PM82 °FClear.7 mph82%30.04 "Hg10 mi
9:53 PM82 °FClear.8 mph82%30.03 "Hg10 mi
8:53 PM82 °FClear.8 mph79%30.01 "Hg10 mi
7:53 PM83 °FClear.8 mph77%30.00 "Hg10 mi
6:53 PM84 °FSunny.5 mph74%30.00 "Hg10 mi
5:53 PM84 °FSunny.9 mph77%29.99 "Hg10 mi
4:53 PM85 °FSunny.8 mph72%29.99 "Hg10 mi
3:53 PM86 °FSunny.13 mph70%29.99 "Hg10 mi
2:53 PM87 °FSunny.10 mph65%30.00 "Hg10 mi
1:53 PM88 °FSunny.12 mph63%30.01 "Hg10 mi
12:53 PM87 °FSunny.14 mph65%30.02 "Hg10 mi
11:53 AM87 °FSunny.14 mph67%30.04 "Hg10 mi
10:53 AM86 °FSunny.13 mph70%30.05 "Hg10 mi
9:53 AM84 °FBroken clouds.14 mph77%30.05 "Hg10 mi
8:53 AM84 °FMostly cloudy.13 mph70%30.05 "Hg10 mi
7:53 AM85 °FSunny.12 mph68%30.04 "Hg10 mi
5:53 AM79 °FClear.8 mph84%30.02 "Hg10 mi
Weather by CustomWeather, © 2014

See weather overviewHow to use our weather pages